This demonstration page uses our WeatherBlox Daily Observations layout. Learn more.

Left ArrowRight Arrow

38.20091, -84.87328

Hourly Observations for October 2, 2021

Temp ( °F °C ) Dew Point ( °F °C ) Humidity (%) Winds ( mph kmh ) Pressure ( in mb ) Visibility ( mi km ) Precip ( " mm )
12:53 am 00:53 Clear 57 13.9 53 11.7 87 87 Calm 30.17 1022 10 16 0.00 0.00
1:53 am 01:53 Clear 57 13.9 53 11.7 87 87 Calm 30.17 1022 10 16 0.00 0.00
2:53 am 02:53 Clear 55 12.8 52 11.1 90 90 Calm 30.16 1021 10 16 0.00 0.00
3:53 am 03:53 Mostly Cloudy 57 13.9 54 12.2 90 90 Calm 30.14 1021 10 16 0.00 0.00
4:53 am 04:53 Clear 59 15 55 12.8 87 87 Calm 30.13 1020 10 16 0.00 0.00
5:53 am 05:53 Clear 60 15.6 55 12.8 84 84 Calm 30.13 1020 10 16 0.00 0.00
6:53 am 06:53 Clear 59 15 55 12.8 87 87 Calm 30.14 1021 10 16 0.00 0.00
7:53 am 07:53 Sunny 59 15 55 12.8 87 87 Calm 30.15 1021 10 16 0.00 0.00
8:53 am 08:53 Sunny 62 16.7 58 14.4 86 86 SE 3 6 30.15 1021 10 16 0.00 0.00
9:53 am 09:53 Mostly Cloudy 70 21.1 63 17.2 79 79 SSW 8 13 30.14 1021 10 16 0.00 0.00
10:53 am 10:53 Sunny 74 23.3 65 18.3 74 74 S 6 9 30.13 1020 10 16 0.00 0.00
11:53 am 11:53 Sunny 76 24.4 66 18.9 72 72 SW 8 13 30.13 1020 10 16 0.00 0.00
12:53 pm 12:53 Sunny 78 25.6 67 19.4 69 69 SW 7 11 30.11 1020 10 16 0.00 0.00
1:53 pm 13:53 Mostly Sunny 80 26.7 66 18.9 62 62 SW 12 19 30.10 1019 10 16 0.00 0.00
2:53 pm 14:53 Partly Cloudy 80 26.7 66 18.9 62 62 SSW 10 17 30.08 1019 10 16 0.00 0.00
3:53 pm 15:53 Mostly Cloudy 81 27.2 66 18.9 61 61 SSW 9 15 30.06 1018 10 16 0.00 0.00
4:53 pm 16:53 Mostly Sunny 81 27.2 66 18.9 61 61 SW 7 11 30.04 1017 10 16 0.00 0.00
5:53 pm 17:53 Sunny 79 26.1 67 19.4 67 67 SSW 7 11 30.04 1017 10 16 0.00 0.00
6:53 pm 18:53 Mostly Cloudy with Heavy Rain 70 21.1 65 18.3 84 84 SW 8 13 30.05 1018 2 2 0.09 2.29
7:02 pm 19:02 Mostly Cloudy with Light Rain 69 20.6 65 18.3 87 87 WNW 3 6 30.04 1017 3 5 0.02 0.51
7:53 pm 19:53 Cloudy 70 21.1 67 19.4 90 90 Calm 30.04 1017 10 16 0.02 0.51
8:53 pm 20:53 Partly Cloudy 69 20.6 67 19.4 93 93 Calm 30.04 1017 10 16 0.07 1.78
9:53 pm 21:53 Cloudy 70 21.1 68 20 93 93 S 3 6 30.04 1017 10 16 0.03 0.76
10:53 pm 22:53 Cloudy 70 21.1 68 20 93 93 S 5 7 30.03 1017 9 14 0.01 0.25
11:53 pm 23:53 Cloudy 70 21.1 68 20 93 93 S 3 6 30.03 1017 8 13 0.00 0.00

Powered by AerisWeather